When you browse on this site, cookies collect data to enhance your experience and personalize the content and advertising you see.
Visit our Privacy Policy to learn more. By continuing to use the site, you agree to this use of cookies and data.
  • Em Portugal
  • Lista de países
  • Para 7 dias
  • Temperatura da água
  • Mapas de satélite
  • Mapa do tempo
  • Widgets de tempo
  • user-avatar
    Iniciar Sessão

    Previsão horária em Wieloleka

    Hoje, 24 Abril, Quarta-feira

    Tempo Temperatura Precipitação Vento Pressão Humidade
    00:00 +11°C° 0 mm 6 m/s 750 mmHg 57%
    01:00 +11°C° 0 mm 6 m/s 750 mmHg 59%
    02:00 +10°C° 0 mm 6 m/s 750 mmHg 61%
    03:00 +9°C° 0 mm 6 m/s 750 mmHg 63%
    04:00 +9°C° 0 mm 6 m/s 750 mmHg 66%
    05:00 +9°C° 0 mm 6 m/s 750 mmHg 67%
    06:00 +10°C° 0 mm 6 m/s 750 mmHg 68%
    07:00 +11°C° 0 mm 7 m/s 750 mmHg 69%
    08:00 +12°C° 0 mm 7 m/s 750 mmHg 65%
    09:00 +15°C° 0 mm 7 m/s 750 mmHg 61%
    10:00 +17°C° 0 mm 7 m/s 750 mmHg 57%
    11:00 +17°C° 0 mm 6 m/s 750 mmHg 58%
    12:00 +19°C° 0 mm 6 m/s 750 mmHg 59%
    13:00 +19°C° 0 mm 5 m/s 750 mmHg 60%
    14:00 +19°C° 0 mm 5 m/s 749 mmHg 61%
    15:00 +19°C° 0 mm 4 m/s 749 mmHg 62%
    16:00 +19°C° 0 mm 4 m/s 749 mmHg 64%
    17:00 +18°C° 0 mm 4 m/s 749 mmHg 65%
    18:00 +18°C° 0 mm 4 m/s 749 mmHg 67%
    19:00 +17°C° 0 mm 4 m/s 749 mmHg 68%
    20:00 +17°C° 0 mm 4 m/s 749 mmHg 70%
    21:00 +15°C° 0 mm 4 m/s 749 mmHg 71%
    22:00 +15°C° 0 mm 5 m/s 750 mmHg 73%
    23:00 +14°C° 0 mm 5 m/s 749 mmHg 73%

    Amanhã, 25 Abril, Quinta-feira

    Tempo Temperatura Precipitação Vento Pressão Humidade
    00:00 +14°C° 0 mm 5 m/s 749 mmHg 74%
    01:00 +13°C° 0 mm 5 m/s 749 mmHg 75%
    02:00 +13°C° 0 mm 5 m/s 749 mmHg 76%
    03:00 +13°C° 0 mm 5 m/s 749 mmHg 76%
    04:00 +12°C° 0 mm 5 m/s 749 mmHg 77%
    05:00 +13°C° 0 mm 5 m/s 749 mmHg 76%
    06:00 +14°C° 0 mm 5 m/s 749 mmHg 75%
    07:00 +15°C° 0 mm 5 m/s 749 mmHg 74%
    08:00 +17°C° 0 mm 5 m/s 749 mmHg 69%
    09:00 +19°C° 0 mm 5 m/s 750 mmHg 65%
    10:00 +21°C° 0 mm 5 m/s 750 mmHg 60%
    11:00 +21°C° 0 mm 5 m/s 750 mmHg 60%
    12:00 +21°C° 0 mm 5 m/s 749 mmHg 60%
    13:00 +21°C° 0 mm 4 m/s 749 mmHg 60%
    14:00 +21°C° 0 mm 3 m/s 749 mmHg 60%
    15:00 +21°C° 0 mm 3 m/s 749 mmHg 60%
    16:00 +21°C° 0 mm 2 m/s 749 mmHg 60%
    17:00 +20°C° 0 mm 2 m/s 749 mmHg 64%
    18:00 +20°C° 0 mm 1 m/s 749 mmHg 69%
    19:00 +18°C° 0 mm 1 m/s 749 mmHg 73%
    20:00 +18°C° 0 mm 1 m/s 749 mmHg 76%
    21:00 +16°C° 0 mm 2 m/s 749 mmHg 78%
    22:00 +16°C° 0 mm 2 m/s 749 mmHg 81%
    23:00 +15°C° 0 mm 2 m/s 749 mmHg 83%

    Depois de amanhã, 26 Abril, Sexta-feira

    Tempo Temperatura Precipitação Vento Pressão Humidade
    00:00 +15°C° 0 mm 2 m/s 749 mmHg 85%
    01:00 +15°C° 0 mm 2 m/s 749 mmHg 88%
    02:00 +14°C° 0 mm 2 m/s 749 mmHg 87%
    03:00 +14°C° 0 mm 2 m/s 748 mmHg 87%
    04:00 +13°C° 0 mm 2 m/s 748 mmHg 87%
    05:00 +14°C° 0 mm 3 m/s 748 mmHg 82%
    06:00 +16°C° 0 mm 3 m/s 748 mmHg 77%
    07:00 +18°C° 0 mm 3 m/s 748 mmHg 72%
    08:00 +19°C° 0 mm 3 m/s 748 mmHg 66%
    09:00 +21°C° 0 mm 2 m/s 747 mmHg 60%
    10:00 +23°C° 0 mm 2 m/s 747 mmHg 53%
    11:00 +24°C° 0 mm 3 m/s 747 mmHg 51%
    12:00 +25°C° 0 mm 3 m/s 747 mmHg 49%
    13:00 +25°C° 0 mm 3 m/s 747 mmHg 47%
    14:00 +25°C° 0 mm 3 m/s 746 mmHg 46%
    15:00 +25°C° 0 mm 2 m/s 746 mmHg 46%
    16:00 +25°C° 0 mm 2 m/s 746 mmHg 46%
    17:00 +24°C° 0 mm 2 m/s 746 mmHg 51%
    18:00 +22°C° 0 mm 1 m/s 746 mmHg 57%
    19:00 +20°C° 0 mm 1 m/s 746 mmHg 62%
    20:00 +20°C° 0 mm 1 m/s 746 mmHg 65%
    21:00 +19°C° 0 mm 1 m/s 746 mmHg 68%
    22:00 +19°C° 0 mm 1 m/s 746 mmHg 71%
    23:00 +18°C° 0 mm 1 m/s 745 mmHg 74%

    27 Abril, Sábado

    Tempo Temperatura Precipitação Vento Pressão Humidade
    00:00 +18°C° 0 mm 1 m/s 745 mmHg 77%
    01:00 +16°C° 0 mm 1 m/s 745 mmHg 79%
    02:00 +16°C° 0 mm 1 m/s 745 mmHg 81%
    03:00 +15°C° 0 mm 1 m/s 745 mmHg 84%
    04:00 +15°C° 0 mm 1 m/s 745 mmHg 86%
    05:00 +15°C° 0 mm 2 m/s 745 mmHg 85%
    06:00 +16°C° 0 mm 2 m/s 745 mmHg 85%
    07:00 +16°C° 0 mm 3 m/s 745 mmHg 84%
    08:00 +17°C° 0 mm 3 m/s 745 mmHg 83%
    09:00 +17°C° 0 mm 4 m/s 745 mmHg 81%
    10:00 +17°C° 0 mm 5 m/s 745 mmHg 79%
    11:00 +17°C° 0 mm 5 m/s 745 mmHg 79%
    12:00 +16°C° 0 mm 5 m/s 745 mmHg 79%
    13:00 +16°C° 0 mm 5 m/s 746 mmHg 79%
    14:00 +16°C° 0 mm 5 m/s 746 mmHg 78%
    15:00 +15°C° 0 mm 6 m/s 746 mmHg 78%
    16:00 +15°C° 0 mm 6 m/s 746 mmHg 77%
    17:00 +14°C° 0 mm 6 m/s 747 mmHg 77%
    18:00 +11°C° 0 mm 6 m/s 747 mmHg 77%
    19:00 +10°C° 0 mm 6 m/s 748 mmHg 77%
    20:00 +10°C° 0 mm 5 m/s 748 mmHg 78%
    21:00 +9°C° 0 mm 5 m/s 749 mmHg 79%
    22:00 +8°C° 0 mm 5 m/s 749 mmHg 80%
    23:00 +8°C° 0 mm 5 m/s 749 mmHg 80%

    28 Abril, Domingo

    Tempo Temperatura Precipitação Vento Pressão Humidade
    00:00 +8°C° 0 mm 5 m/s 750 mmHg 80%
    01:00 +8°C° 0 mm 5 m/s 750 mmHg 79%
    02:00 +7°C° 0 mm 5 m/s 750 mmHg 84%
    03:00 +7°C° 0 mm 5 m/s 750 mmHg 88%
    04:00 +6°C° 0 mm 4 m/s 751 mmHg 92%
    05:00 +7°C° 0 mm 4 m/s 751 mmHg 89%
    06:00 +8°C° 0 mm 5 m/s 751 mmHg 85%
    07:00 +9°C° 0 mm 5 m/s 751 mmHg 82%
    08:00 +10°C° 0 mm 5 m/s 752 mmHg 77%
    09:00 +12°C° 0 mm 4 m/s 752 mmHg 73%
    10:00 +13°C° 0 mm 4 m/s 752 mmHg 69%
    11:00 +14°C° 0 mm 4 m/s 752 mmHg 66%
    12:00 +15°C° 0 mm 4 m/s 752 mmHg 63%
    13:00 +16°C° 0 mm 3 m/s 752 mmHg 61%
    14:00 +15°C° 0 mm 4 m/s 752 mmHg 61%
    15:00 +15°C° 0 mm 4 m/s 752 mmHg 61%
    16:00 +17°C° 0 mm 4 m/s 752 mmHg 61%
    17:00 +14°C° 0 mm 4 m/s 753 mmHg 65%
    18:00 +13°C° 0 mm 4 m/s 753 mmHg 70%
    19:00 +12°C° 0 mm 4 m/s 753 mmHg 74%
    20:00 +12°C° 0 mm 4 m/s 753 mmHg 75%
    21:00 +12°C° 0 mm 4 m/s 754 mmHg 75%
    22:00 +11°C° 0 mm 4 m/s 754 mmHg 76%
    23:00 +11°C° 0 mm 3 m/s 754 mmHg 78%

    29 Abril, Segunda-feira

    Tempo Temperatura Precipitação Vento Pressão Humidade
    00:00 +10°C° 0 mm 3 m/s 753 mmHg 79%
    01:00 +10°C° 0 mm 3 m/s 753 mmHg 81%
    02:00 +10°C° 0 mm 4 m/s 753 mmHg 82%
    03:00 +10°C° 0 mm 4 m/s 753 mmHg 83%
    04:00 +9°C° 0 mm 5 m/s 753 mmHg 84%
    05:00 +9°C° 0.1 mm 5 m/s 753 mmHg 85%
    06:00 +10°C° 0.1 mm 5 m/s 753 mmHg 87%
    07:00 +10°C° 0.1 mm 5 m/s 753 mmHg 89%
    08:00 +10°C° 0.3 mm 5 m/s 752 mmHg 88%
    09:00 +12°C° 0.3 mm 4 m/s 752 mmHg 88%
    10:00 +12°C° 0.3 mm 4 m/s 752 mmHg 88%
    11:00 +13°C° 0.1 mm 4 m/s 752 mmHg 86%
    12:00 +14°C° 0.1 mm 4 m/s 752 mmHg 84%
    13:00 +15°C° 0.1 mm 4 m/s 751 mmHg 83%
    14:00 +17°C° 0.4 mm 3 m/s 751 mmHg 80%
    15:00 +18°C° 0.4 mm 3 m/s 751 mmHg 77%
    16:00 +19°C° 0.4 mm 2 m/s 751 mmHg 74%
    17:00 +18°C° 0.8 mm 2 m/s 751 mmHg 79%
    18:00 +17°C° 0.8 mm 2 m/s 751 mmHg 84%
    19:00 +16°C° 0.8 mm 2 m/s 751 mmHg 89%
    20:00 +14°C° 0 mm 3 m/s 751 mmHg 91%
    21:00 +13°C° 0 mm 3 m/s 751 mmHg 92%
    22:00 +12°C° 0 mm 3 m/s 752 mmHg 94%
    23:00 +12°C° 0 mm 3 m/s 752 mmHg 94%
    Mostrar mais